Weather History for KMVN - February, 2014

Change the Weather History Date:

Wednesday, February 12, 2014

  Actual Average Record
Temperature  
Mean Temperature 16 °F -  
Max Temperature 33 °F 42 °F 59 °F (2005)
Min Temperature 0 °F 27 °F 0 °F (2014)
Degree Days  
Heating Degree Days 48    
Moisture  
Dew Point 7 °F    
Average Humidity 65    
Maximum Humidity 92    
Minimum Humidity 41    
Precipitation  
Precipitation 0.00 in - - ()
Sea Level Pressure  
Sea Level Pressure 30.16 in    
Wind  
Wind Speed 4 mph (NNE)    
Max Wind Speed 8 mph    
Max Gust Speed -    
Visibility 10 miles    
Events      
Averages and records for this station are not official NWS values.
T = Trace of Precipitation, MM = Missing Value Source: NWS Daily Summary

Daily Weather History Graph

Daily Weather History Graph

Search for Another Location

Airport or City:

Trip Planner

Search our weather history database for the weather conditions in past years. The results will help you decide how hot, cold, wet, or windy it might be!

Date:

Astronomy

Feb. 12, 2014 Rise Set
Actual Time 6:49 AM CST 5:30 PM CST
Civil Twilight 6:22 AM CST 5:57 PM CST
Nautical Twilight 5:51 AM CST 6:28 PM CST
Astronomical Twilight 5:20 AM CST 6:59 PM CST
Moon 3:44 PM CST (2/12) 5:05 AM CST (2/12)
Length of Visible Light 11h 35m
Length of Day
10h 41m
Waxing Gibbous, 95% of the Moon is Illuminated
Feb 12
Waxing Gibbous
Feb 14
Full
Feb 22
Last Quarter
Mar 1
New
Mar 8
First Quarter

Hourly Weather History & Observations

Time (CST) Temp. Windchill Dew Point Humidity Pressure Visibility Wind Dir Wind Speed Gust Speed Precip Events Conditions
12:15 AM 8.6 °F 0.1 °F 1.4 °F 73% 30.34 in 10.0 mi NNE 4.6 mph - N/A   Clear
12:35 AM 6.8 °F -0.1 °F -2.2 °F 67% 30.33 in 10.0 mi NNE 3.5 mph - N/A   Clear
12:55 AM 6.8 °F -2.0 °F 1.4 °F 79% 30.32 in 10.0 mi NNE 4.6 mph - N/A   Clear
1:15 AM 3.2 °F - -5.8 °F 66% 30.32 in 10.0 mi Calm Calm - N/A   Clear
1:35 AM 8.6 °F 0.1 °F 6.8 °F 92% 30.32 in 10.0 mi North 4.6 mph - N/A   Clear
1:55 AM 8.6 °F 2.0 °F -0.4 °F 67% 30.30 in 10.0 mi NNE 3.5 mph - N/A   Clear
2:15 AM 5.0 °F -2.1 °F -2.2 °F 72% 30.29 in 10.0 mi NNE 3.5 mph - N/A   Clear
2:35 AM 3.2 °F -4.2 °F -0.4 °F 85% 30.28 in 10.0 mi NNE 3.5 mph - N/A   Clear
2:55 AM 3.2 °F -4.2 °F -2.2 °F 78% 30.27 in 10.0 mi NNE 3.5 mph - N/A   Clear
3:15 AM 5.0 °F -2.1 °F -0.4 °F 78% 30.26 in 10.0 mi NNE 3.5 mph - N/A   Clear
3:35 AM 3.2 °F -6.2 °F -0.4 °F 85% 30.25 in 10.0 mi NNE 4.6 mph - N/A   Clear
3:55 AM 3.2 °F -4.2 °F -0.4 °F 85% 30.26 in 10.0 mi NNE 3.5 mph - N/A   Clear
4:15 AM 1.4 °F -8.3 °F -5.8 °F 72% 30.26 in 10.0 mi North 4.6 mph - N/A   Clear
4:35 AM 5.0 °F -4.1 °F 3.2 °F 92% 30.26 in 10.0 mi North 4.6 mph - N/A   Clear
4:55 AM 1.4 °F - -7.6 °F 66% 30.26 in 10.0 mi Calm Calm - N/A   Clear
5:15 AM -0.4 °F -8.3 °F -2.2 °F 92% 30.25 in 10.0 mi NE 3.5 mph - N/A   Clear
5:35 AM 3.2 °F -7.8 °F 1.4 °F 92% 30.24 in 10.0 mi NNE 5.8 mph - N/A   Clear
5:55 AM 6.8 °F -2.0 °F -2.2 °F 67% 30.24 in 10.0 mi NNE 4.6 mph - N/A   Clear
6:15 AM 6.8 °F -2.0 °F 1.4 °F 79% 30.24 in 10.0 mi NNE 4.6 mph - N/A   Clear
6:35 AM 3.2 °F -4.2 °F -5.8 °F 66% 30.24 in 10.0 mi NNE 3.5 mph - N/A   Clear
6:55 AM 1.4 °F -6.2 °F -5.8 °F 72% 30.24 in 10.0 mi NNE 3.5 mph - N/A   Clear
7:15 AM 6.8 °F -3.5 °F 1.4 °F 79% 30.24 in 10.0 mi NNE 5.8 mph - N/A   Clear
7:35 AM 6.8 °F -3.5 °F 1.4 °F 79% 30.24 in 10.0 mi NNE 5.8 mph - N/A   Clear
7:55 AM 8.6 °F -1.3 °F 1.4 °F 73% 30.24 in 10.0 mi NE 5.8 mph - N/A   Clear
8:15 AM 10.4 °F 2.2 °F 5.0 °F 79% 30.24 in 10.0 mi NE 4.6 mph - N/A   Clear
8:35 AM 10.4 °F 0.8 °F 3.2 °F 73% 30.24 in 10.0 mi NNE 5.8 mph - N/A   Clear
8:55 AM 12.2 °F 1.7 °F 6.8 °F 79% 30.23 in 10.0 mi NE 6.9 mph - N/A   Clear
9:15 AM 14.0 °F 3.9 °F 6.8 °F 73% 30.23 in 10.0 mi NE 6.9 mph - N/A   Clear
9:35 AM 15.8 °F 7.2 °F 8.6 °F 73% 30.22 in 10.0 mi NE 5.8 mph - N/A   Clear
9:55 AM 17.6 °F 10.7 °F 8.6 °F 68% 30.22 in 10.0 mi NE 4.6 mph - N/A   Clear
10:15 AM 19.4 °F - 8.6 °F 63% 30.23 in 10.0 mi Calm Calm - N/A   Clear
10:35 AM 21.2 °F - 10.4 °F 63% 30.22 in 10.0 mi Calm Calm - N/A   Clear
10:55 AM 21.2 °F - 10.4 °F 63% 30.21 in 10.0 mi Calm Calm - N/A   Clear
11:15 AM 23.0 °F - 10.4 °F 59% 30.21 in 10.0 mi Calm Calm - N/A   Clear
11:35 AM 24.8 °F - 12.2 °F 59% 30.19 in 10.0 mi Calm Calm - N/A   Clear
11:55 AM 28.4 °F - 14.0 °F 55% 30.18 in 10.0 mi Calm Calm - N/A   Clear
12:15 PM 28.4 °F - 10.4 °F 47% 30.16 in 10.0 mi Calm Calm - N/A   Clear
12:35 PM 28.4 °F - 12.2 °F 51% 30.14 in 10.0 mi Calm Calm - N/A   Clear
12:55 PM 32.0 °F - 15.8 °F 51% 30.13 in 10.0 mi Calm Calm - N/A   Clear
1:15 PM 33.8 °F - 15.8 °F 48% 30.12 in 10.0 mi Calm Calm - N/A   Clear
1:35 PM 32.0 °F 27.5 °F 12.2 °F 44% 30.11 in 10.0 mi ENE 4.6 mph - N/A   Clear
1:55 PM 30.2 °F 23.4 °F 14.0 °F 51% 30.10 in 10.0 mi NNE 6.9 mph - N/A   Clear
2:15 PM 32.0 °F 26.4 °F 14.0 °F 48% 30.10 in 10.0 mi NE 5.8 mph - N/A   Clear
2:35 PM 32.0 °F 26.4 °F 12.2 °F 44% 30.08 in 10.0 mi NE 5.8 mph - N/A   Clear
2:55 PM 33.8 °F 27.7 °F 12.2 °F 41% 30.07 in 10.0 mi NE 6.9 mph - N/A   Clear
3:15 PM 32.0 °F 24.8 °F 12.2 °F 44% 30.07 in 10.0 mi ENE 8.1 mph - N/A   Clear
3:35 PM 32.0 °F 24.8 °F 14.0 °F 48% 30.06 in 10.0 mi NE 8.1 mph - N/A   Clear
3:55 PM 32.0 °F 25.6 °F 14.0 °F 48% 30.06 in 10.0 mi NNE 6.9 mph - N/A   Clear
4:15 PM 30.2 °F 23.4 °F 12.2 °F 47% 30.05 in 10.0 mi NE 6.9 mph - N/A   Clear
4:35 PM 30.2 °F 24.3 °F 12.2 °F 47% 30.05 in 10.0 mi NE 5.8 mph - N/A   Clear
4:55 PM 30.2 °F 25.4 °F 12.2 °F 47% 30.04 in 10.0 mi NE 4.6 mph - N/A   Clear
5:15 PM 30.2 °F 24.3 °F 14.0 °F 51% 30.05 in 10.0 mi NE 5.8 mph - N/A   Clear
5:35 PM 28.4 °F 24.6 °F 14.0 °F 55% 30.05 in 10.0 mi NE 3.5 mph - N/A   Clear
5:55 PM 28.4 °F - 14.0 °F 55% 30.05 in 10.0 mi Calm Calm - N/A   Clear
6:15 PM 28.4 °F - 14.0 °F 55% 30.05 in 10.0 mi Calm Calm - N/A   Clear
6:35 PM 26.6 °F 22.6 °F 14.0 °F 59% 30.05 in 10.0 mi NNE 3.5 mph - N/A   Clear
6:55 PM 26.6 °F 22.6 °F 12.2 °F 55% 30.06 in 10.0 mi NNE 3.5 mph - N/A   Clear
7:15 PM 26.6 °F 21.2 °F 14.0 °F 59% 30.06 in 10.0 mi North 4.6 mph - N/A   Clear
7:35 PM 24.8 °F 19.1 °F 12.2 °F 59% 30.06 in 10.0 mi NNE 4.6 mph - N/A   Clear
7:55 PM 24.8 °F 19.1 °F 12.2 °F 59% 30.06 in 10.0 mi NNE 4.6 mph - N/A   Clear
8:15 PM 26.6 °F 21.2 °F 12.2 °F 55% 30.06 in 10.0 mi NNE 4.6 mph - N/A   Clear
8:35 PM 24.8 °F 17.9 °F 12.2 °F 59% 30.06 in 10.0 mi NNE 5.8 mph - N/A   Clear
8:55 PM 24.8 °F 17.9 °F 12.2 °F 59% 30.05 in 10.0 mi NNE 5.8 mph - N/A   Clear
9:15 PM 24.8 °F 19.1 °F 10.4 °F 54% 30.04 in 10.0 mi NNE 4.6 mph - N/A   Clear
9:35 PM 23.0 °F 17.0 °F 10.4 °F 59% 30.04 in 10.0 mi NNE 4.6 mph - N/A   Clear
9:55 PM 21.2 °F 16.4 °F 10.4 °F 63% 30.03 in 10.0 mi NNE 3.5 mph - N/A   Clear
10:15 PM 19.4 °F - 10.4 °F 68% 30.02 in 10.0 mi Calm Calm - N/A   Clear
10:35 PM 19.4 °F - 12.2 °F 74% 30.01 in 10.0 mi Calm Calm - N/A   Clear
10:55 PM 19.4 °F 14.3 °F 10.4 °F 68% 30.00 in 10.0 mi North 3.5 mph - N/A   Clear
11:15 PM 15.8 °F - 6.8 °F 68% 29.99 in 10.0 mi Calm Calm - N/A   Clear
11:35 PM 12.2 °F - 8.6 °F 85% 29.99 in 10.0 mi Calm Calm - N/A   Clear
11:55 PM 10.4 °F - 6.8 °F 85% 30.00 in 10.0 mi Calm Calm - N/A   Clear